[[{"header":{"parameterUnit":"m.s-1","parameterCategory":2,"la1":30.2991,"la2":30.254,"lo1":-89.0895,"lo2":-89.0444,"dy":0.0017,"dx":0.0017,"nx":28,"ny":28,"refTime":"2023-11-02T09:00:00:Z","depth":"0","parameterNumber":2,"parameterNumberName":"U-component_of_CURRENTS"},"data":[0,0,0,0,0,0,0,0,0,0,0,0,0,0,0,0,0,0,0,0,0,0,0,0,0,0,0,0,0,0,0,0,0,0,0,0,0,0,0,0,0,0,0,0,0,0,0,0,0,0,0,0,0,0,0,0,0,0,0.3269,0.327,0,0.3262,0.3261,0.326,0.3211,0.3211,0.3211,0.3211,0.3177,0.3176,0.3175,0,0,0,0,0,0,0,0,0,0,0,0,0,0.3165,0.3167,0.3269,0.327,0.3271,0.3262,0.3261,0.326,0.3211,0.3211,0.3211,0.3211,0.3177,0.3176,0.3175,0,0,0,0,0,0,0,0,0,0,0,0,0,0.318,0.3168,0.3269,0.3253,0.3253,0.3262,0.3261,0.3259,0.3212,0.3211,0.3211,0.321,0.3177,0.3176,0.3175,0.3176,0,0,0.3172,0.3171,0,0,0,0,0,0,0,0,0.3179,0.3183,0.3255,0.3255,0.3254,0.3246,0.3212,0.3234,0.3212,0.3216,0.3211,0.321,0.3204,0.3201,0.3186,0.3174,0.3173,0.3172,0.3171,0.3171,0.317,0,0,0,0,0,0,0,0.3178,0.3182,0.3256,0.3256,0.3255,0.3221,0.3222,0.3215,0.3204,0.3216,0.3215,0.323,0.3202,0.3187,0.3185,0.3172,0.3172,0.3171,0.317,0.317,0.3191,0.3192,0,0,0,0,0,0,0.3205,0.3182,0.3256,0.3257,0.3226,0.3224,0.3225,0.3241,0.3205,0.3202,0.3231,0.3228,0.3189,0.3186,0.3184,0.3217,0.3171,0.317,0.3169,0.319,0.3191,0.3192,0,0,0,0,0,0,0.3202,0.3211,0.3257,0.3227,0.3232,0.3228,0.3245,0.3241,0.3236,0.3218,0.3213,0.3232,0.3189,0.3185,0.3184,0.3214,0.3169,0.3168,0.3188,0.319,0.3192,0.3262,0,0,0,0,0,0,0.3199,0.321,0.3219,0.3229,0.3235,0.3272,0.3246,0.3241,0.325,0.3247,0.3218,0.3213,0.3188,0.3186,0.3183,0.3212,0.3168,0.3187,0.3189,0.3191,0.3258,0.3266,0.3273,0,0,0,0,0,0.3195,0.3209,0.3219,0.3228,0.3251,0.3274,0.3272,0.3261,0.3251,0.3252,0.3233,0.3215,0.3199,0.3186,0.3183,0.3212,0.3186,0.3188,0.3191,0.3255,0.3265,0.3273,0,0,0,0,0,0,0.316,0.3208,0.3218,0.3243,0.3267,0.327,0.3273,0.3272,0.3256,0.3252,0.3224,0.3218,0.3231,0.3212,0.3199,0.3225,0.3192,0.3194,0.3242,0.3251,0.3258,0.3268,0.3167,0,0,0,0,0,0.3165,0.3187,0.3228,0.3246,0.3266,0.3273,0.3279,0.3281,0.3278,0.327,0.3251,0.3238,0.3238,0.3236,0.3225,0.3238,0.3245,0.3257,0.3264,0.327,0.3277,0.3312,0.3323,0.3201,0.3201,0.3201,0,0,0.3154,0.3185,0.3195,0.3241,0.3255,0.3285,0.3273,0.3296,0.3308,0.3271,0.3268,0.3261,0.3246,0.3258,0.3263,0.3247,0.3312,0.3274,0.3279,0.3282,0.3316,0.3328,0.3338,0.3203,0.3202,0.3202,0,0,0.3153,0.318,0.3205,0.3235,0.3282,0.3291,0.3307,0.3325,0.3322,0.333,0.3312,0.3325,0.3308,0.3312,0.3311,0.3355,0.3348,0.3353,0.3399,0.3433,0.3444,0.3453,0.3495,0.3507,0.3358,0.3358,0.3358,0,0.3134,0.3182,0.3212,0.3253,0.328,0.3302,0.3336,0.3341,0.3348,0.3353,0.3338,0.3348,0.3337,0.3371,0.3385,0.3373,0.3391,0.3368,0.3444,0.3453,0.3461,0.3502,0.3515,0.3362,0.3362,0.3361,0.3361,0,0.3162,0.3202,0.3222,0.3282,0.331,0.3343,0.3379,0.339,0.3393,0.3399,0.3428,0.3422,0.3428,0.3438,0.3422,0.3482,0.3477,0.345,0.3424,0.3478,0.3517,0.3529,0.3367,0.3366,0.3365,0.3364,0,0,0.3105,0.3219,0.3223,0.3259,0.3332,0.3352,0.3392,0.3429,0.3449,0.3463,0.3491,0.3511,0.3515,0.3516,0.3515,0.355,0.3631,0.3529,0.353,0.3575,0.3719,0.3716,0.3728,0.3617,0.3619,0.3621,0.3729,0,0.3113,0.3189,0.3245,0.3301,0.3344,0.339,0.3421,0.3456,0.3479,0.3506,0.3532,0.3558,0.3544,0.3562,0.3596,0.3616,0.3662,0.3604,0.3655,0.3657,0.3651,0.3742,0.3523,0.3601,0.3741,0.3743,0.3744,0,0.3116,0.3171,0.3234,0.3321,0.3342,0.337,0.3426,0.3465,0.3522,0.3544,0.359,0.3607,0.3672,0.3646,0.373,0.3694,0.3717,0.3735,0.3739,0.3718,0.3677,0.3566,0.3618,0.3436,0.3762,0.3761,0.376,0,0.3054,0.3154,0.3199,0.3231,0.3331,0.3353,0.3398,0.3463,0.3502,0.3578,0.3613,0.368,0.3711,0.3764,0.3804,0.3774,0.3893,0.385,0.3877,0.3877,0.3692,0.3672,0.3573,0.3921,0.392,0.392,0.392,0,0.3037,0.3073,0.3168,0.3195,0.3237,0.3317,0.3368,0.3422,0.3506,0.3563,0.3628,0.3684,0.374,0.3806,0.3842,0.391,0.3927,0.3915,0.3915,0.3713,0.3695,0.3528,0.3488,0.3924,0.3923,0.3923,0.3922,0,0.2971,0.304,0.3096,0.3189,0.3215,0.3243,0.3354,0.3392,0.3481,0.3562,0.3595,0.3694,0.3804,0.3871,0.396,0.3951,0.3899,0.4037,0.3808,0.3781,0.3633,0.3607,0.3521,0.3425,0.4092,0.4093,0.4094,0,0.2952,0.2973,0.3069,0.3096,0.3139,0.3201,0.3247,0.336,0.3418,0.3571,0.3605,0.3734,0.3831,0.3974,0.3984,0.4072,0.3929,0.3901,0.3809,0.3625,0.3595,0.3498,0.3415,0.3593,0.359,0.3587,0.3585,0,0.2907,0.2934,0.2979,0.3035,0.308,0.3147,0.3228,0.3265,0.3406,0.3473,0.3576,0.3672,0.3831,0.3823,0.3939,0.3944,0.3677,0.3849,0.3687,0.3244,0.3098,0.3002,0.3539,0.3559,0.3561,0.3563,0.3565,0.3566,0.286,0.2868,0.2918,0.296,0.3015,0.3065,0.3072,0.3171,0.3239,0.3305,0.3459,0.3525,0.3573,0.3717,0.3719,0.3485,0.3579,0.3316,0.3319,0.3253,0.309,0.3606,0.361,0.3612,0.3615,0.3617,0.3619,0,0.2781,0.2802,0.2842,0.2878,0.2883,0.2959,0.3029,0.3006,0.3026,0.3156,0.3217,0.3201,0.3182,0.3196,0.3058,0.2931,0.2788,0.2802,0.2539,0.2502,0.2953,0.2853,0.2653,0.2653,0.2654,0.2654,0.2654,0.2654,0.274,0.2733,0.2751,0.2727,0.2747,0.271,0.2718,0.2712,0.2774,0.2741,0.273,0.2792,0.282,0.2685,0.2469,0.2391,0.2187,0.2102,0.2161,0.2371,0.2415,0.2456,0.2345,0.2042,0.2042,0.1523,0.1519,0.1516]},{"header":{"parameterUnit":"m.s-1","parameterCategory":2,"la1":30.2991,"la2":30.254,"lo1":-89.0895,"lo2":-89.0444,"dy":0.0017,"dx":0.0017,"nx":28,"ny":28,"refTime":"2023-11-02T09:00:00:Z","depth":"0","parameterNumber":3,"parameterNumberName":"V-component_of_CURRENTS"},"data":[0,0,0,0,0,0,0,0,0,0,0,0,0,0,0,0,0,0,0,0,0,0,0,0,0,0,0,0,0,0,0,0,0,0,0,0,0,0,0,0,0,0,0,0,0,0,0,0,0,0,0,0,0,0,0,0,0,0,-0.0729,-0.073,0,-0.0757,-0.0757,-0.0756,-0.0723,-0.0723,-0.0723,-0.0722,-0.0741,-0.0741,-0.0742,0,0,0,0,0,0,0,0,0,0,0,0,0,-0.0547,-0.055,-0.0729,-0.0731,-0.0732,-0.0758,-0.0757,-0.0756,-0.0723,-0.0723,-0.0723,-0.0722,-0.074,-0.0741,-0.0742,0,0,0,0,0,0,0,0,0,0,0,0,0,-0.0595,-0.0551,-0.0729,-0.0727,-0.0728,-0.0758,-0.0757,-0.0756,-0.0723,-0.0723,-0.0722,-0.0722,-0.074,-0.0741,-0.0742,-0.0753,0,0,-0.0745,-0.0746,0,0,0,0,0,0,0,0,-0.0593,-0.06,-0.0726,-0.0727,-0.0729,-0.0747,-0.07,-0.0759,-0.0723,-0.0713,-0.0722,-0.0722,-0.075,-0.075,-0.0739,-0.0754,-0.0755,-0.0745,-0.0746,-0.0746,-0.0746,0,0,0,0,0,0,0,-0.0589,-0.0599,-0.0728,-0.0728,-0.073,-0.0692,-0.0698,-0.071,-0.0723,-0.0713,-0.0714,-0.0736,-0.0748,-0.0738,-0.074,-0.0755,-0.0745,-0.0746,-0.0747,-0.0747,-0.0783,-0.0783,0,0,0,0,0,0,-0.0616,-0.0597,-0.0728,-0.0731,-0.0672,-0.0697,-0.0703,-0.0732,-0.0723,-0.0725,-0.0736,-0.0734,-0.0737,-0.0738,-0.074,-0.0764,-0.0746,-0.0747,-0.0748,-0.0782,-0.0783,-0.0783,0,0,0,0,0,0,-0.0612,-0.0627,-0.0727,-0.0672,-0.0684,-0.0702,-0.0733,-0.0733,-0.0729,-0.0743,-0.0742,-0.0736,-0.0737,-0.0739,-0.0745,-0.0764,-0.0748,-0.0748,-0.0782,-0.0782,-0.0783,-0.0805,0,0,0,0,0,0,-0.0606,-0.0626,-0.064,-0.0675,-0.0689,-0.0745,-0.0735,-0.0734,-0.0748,-0.0746,-0.0742,-0.0743,-0.0737,-0.0743,-0.0746,-0.0765,-0.0749,-0.0781,-0.0782,-0.0783,-0.0803,-0.0806,-0.0808,0,0,0,0,0,-0.06,-0.0624,-0.064,-0.0656,-0.0713,-0.0747,-0.0748,-0.0751,-0.0749,-0.0745,-0.074,-0.0743,-0.075,-0.0744,-0.0747,-0.0767,-0.0781,-0.0782,-0.0783,-0.0802,-0.0805,-0.0808,0,0,0,0,0,0,-0.0543,-0.0625,-0.0643,-0.0689,-0.072,-0.0745,-0.0749,-0.0757,-0.0749,-0.0748,-0.0745,-0.0746,-0.0759,-0.0759,-0.0753,-0.0778,-0.0768,-0.0769,-0.0782,-0.0785,-0.0787,-0.0773,-0.075,0,0,0,0,0,-0.0546,-0.0587,-0.0649,-0.0681,-0.0702,-0.0726,-0.0738,-0.0749,-0.076,-0.0755,-0.0751,-0.0754,-0.0764,-0.077,-0.0771,-0.0788,-0.0771,-0.0803,-0.0805,-0.0807,-0.0797,-0.0796,-0.0797,-0.0786,-0.0786,-0.0786,0,0,-0.0537,-0.0585,-0.0609,-0.0672,-0.0694,-0.0715,-0.0729,-0.0757,-0.0761,-0.0762,-0.0749,-0.0761,-0.0768,-0.0779,-0.0787,-0.0783,-0.0798,-0.0808,-0.081,-0.0798,-0.0797,-0.0798,-0.0799,-0.0786,-0.0786,-0.0786,0,0,-0.0529,-0.0581,-0.0607,-0.064,-0.0693,-0.0708,-0.0722,-0.0754,-0.0753,-0.0759,-0.0762,-0.0783,-0.0783,-0.0798,-0.0806,-0.0825,-0.0808,-0.083,-0.0834,-0.0834,-0.0835,-0.0835,-0.0801,-0.0798,-0.0834,-0.0834,-0.0834,0,-0.0501,-0.0557,-0.0613,-0.0642,-0.0665,-0.0707,-0.0723,-0.0733,-0.0754,-0.0753,-0.0755,-0.0772,-0.0792,-0.0816,-0.0825,-0.0832,-0.081,-0.0826,-0.0836,-0.0837,-0.0837,-0.0802,-0.0798,-0.0835,-0.0835,-0.0835,-0.0835,0,-0.0512,-0.0556,-0.0573,-0.0624,-0.065,-0.0676,-0.0717,-0.0715,-0.0724,-0.0739,-0.0757,-0.0784,-0.0789,-0.0817,-0.0828,-0.085,-0.0824,-0.0838,-0.0829,-0.0839,-0.0801,-0.0798,-0.0837,-0.0836,-0.0836,-0.0836,0,0,-0.0435,-0.0555,-0.0556,-0.058,-0.0647,-0.0661,-0.0673,-0.0691,-0.0681,-0.0717,-0.0705,-0.0765,-0.0784,-0.0795,-0.0828,-0.0847,-0.0843,-0.0843,-0.0842,-0.0806,-0.0807,-0.0753,-0.0743,-0.0854,-0.0854,-0.0854,-0.0775,0,-0.0411,-0.0462,-0.0528,-0.0552,-0.058,-0.0624,-0.0625,-0.0649,-0.066,-0.0652,-0.0712,-0.0719,-0.0777,-0.0781,-0.0815,-0.083,-0.0835,-0.0861,-0.0804,-0.0801,-0.0751,-0.0739,-0.0667,-0.0588,-0.0771,-0.077,-0.077,0,-0.0387,-0.0426,-0.046,-0.0522,-0.0534,-0.0543,-0.0538,-0.055,-0.0571,-0.058,-0.0615,-0.065,-0.0696,-0.0735,-0.0771,-0.0778,-0.0789,-0.0807,-0.0804,-0.0742,-0.0741,-0.061,-0.0574,-0.0699,-0.0764,-0.0764,-0.0765,0,-0.0296,-0.0371,-0.039,-0.0416,-0.0488,-0.0482,-0.0495,-0.0517,-0.0507,-0.0527,-0.051,-0.0583,-0.0586,-0.0637,-0.0683,-0.0718,-0.0692,-0.0744,-0.0702,-0.0697,-0.0618,-0.0606,-0.0693,-0.0752,-0.0753,-0.0753,-0.0753,0,-0.0252,-0.0262,-0.0346,-0.0357,-0.034,-0.0416,-0.0386,-0.0399,-0.0413,-0.0379,-0.0465,-0.0437,-0.056,-0.0568,-0.0632,-0.0632,-0.0646,-0.0684,-0.0674,-0.0621,-0.0612,-0.0702,-0.0784,-0.075,-0.075,-0.0751,-0.0752,0,-0.0164,-0.023,-0.0243,-0.0301,-0.0307,-0.0287,-0.0308,-0.0283,-0.0308,-0.0256,-0.0255,-0.0308,-0.031,-0.0405,-0.0461,-0.0534,-0.0601,-0.0557,-0.0469,-0.0452,-0.0558,-0.0642,-0.0679,-0.0721,-0.0509,-0.0507,-0.0505,0,-0.0138,-0.0139,-0.0172,-0.0163,-0.0188,-0.018,-0.0165,-0.0207,-0.0177,-0.0156,-0.011,-0.0116,-0.0067,-0.0131,-0.0255,-0.0323,-0.0485,-0.0346,-0.0425,-0.0538,-0.0626,-0.0704,-0.0744,-0.032,-0.0317,-0.0315,-0.0313,0,-0.0068,-0.0071,-0.0079,-0.0056,-0.0041,-0.0024,-0.0008,0.0031,0.0013,0.0082,0.0169,0.0211,0.0155,0.0123,-0.0004,-0.0093,-0.0419,-0.0299,-0.0447,-0.0504,-0.0562,-0.0603,-0.0387,-0.0292,-0.0294,-0.0296,-0.0297,-0.0298,0.0001,0.0022,0.0018,0.0051,0.0081,0.0132,0.0175,0.0223,0.0316,0.0448,0.0437,0.0599,0.044,0.029,0.0123,-0.0177,-0.0235,-0.0285,-0.0377,-0.0445,-0.0498,-0.0218,-0.0104,-0.0105,-0.0106,-0.0107,-0.0108,0,0.0072,0.0087,0.0119,0.0157,0.0229,0.021,0.0283,0.0354,0.0515,0.0703,0.0832,0.0929,0.0742,0.045,0.0039,-0.0211,-0.0348,-0.0377,-0.05,-0.0539,-0.0298,-0.0306,-0.0193,-0.0193,-0.0193,-0.0193,-0.0193,-0.0193,0.0104,0.0147,0.0159,0.0278,0.0322,0.041,0.0464,0.0601,0.0754,0.1053,0.1253,0.1357,0.1118,0.0295,-0.0288,-0.0429,-0.0654,-0.0646,-0.08,-0.0676,-0.0677,-0.0678,-0.0707,-0.068,-0.0681,-0.0989,-0.0992,-0.0995]}],[{"header":{"parameterUnit":"m.s-1","parameterCategory":2,"la1":30.2991,"la2":30.254,"lo1":-89.0895,"lo2":-89.0444,"dy":0.0017,"dx":0.0017,"nx":28,"ny":28,"refTime":"2023-11-02T09:00:00:Z","depth":"2","parameterNumber":2,"parameterNumberName":"U-component_of_CURRENTS"},"data":[0,0,0,0,0,0,0,0,0,0,0,0,0,0,0,0,0,0,0,0,0,0,0,0,0,0,0,0,0,0,0,0,0,0,0,0,0,0,0,0,0,0,0,0,0,0,0,0,0,0,0,0,0,0,0,0,0,0,0.2226,0.2227,0,0.2271,0.2272,0.2272,0.2289,0.2289,0.2289,0.2289,0.2304,0.2305,0.2305,0,0,0,0,0,0,0,0,0,0,0,0,0,0.2242,0.2241,0.2226,0.2227,0.2228,0.2271,0.2272,0.2272,0.2289,0.2289,0.2289,0.2289,0.2304,0.2305,0.2305,0,0,0,0,0,0,0,0,0,0,0,0,0,0.2255,0.2241,0.2226,0.2242,0.2244,0.2271,0.2272,0.2272,0.2289,0.2289,0.2289,0.2289,0.2304,0.2305,0.2305,0.2311,0,0,0.2307,0.2308,0,0,0,0,0,0,0,0,0.2254,0.2254,0.2239,0.2241,0.2243,0.2276,0.2283,0.2284,0.229,0.2271,0.2289,0.2289,0.2293,0.2294,0.2302,0.2311,0.2312,0.2307,0.2308,0.2308,0.2308,0,0,0,0,0,0,0,0.2253,0.2253,0.2243,0.224,0.2242,0.2277,0.2278,0.2284,0.228,0.2273,0.2274,0.2281,0.2293,0.2301,0.2302,0.2312,0.2307,0.2308,0.2308,0.2309,0.2387,0.2388,0,0,0,0,0,0,0.2245,0.2251,0.2242,0.2245,0.225,0.2276,0.2277,0.2264,0.2281,0.2284,0.2281,0.2282,0.23,0.2302,0.2303,0.2352,0.2308,0.2309,0.2309,0.2385,0.2387,0.2389,0,0,0,0,0,0,0.2244,0.2243,0.224,0.2251,0.2253,0.2276,0.2262,0.2265,0.2297,0.2288,0.229,0.2311,0.23,0.2302,0.2325,0.2351,0.2309,0.231,0.2383,0.2386,0.2388,0.2424,0,0,0,0,0,0,0.2244,0.2242,0.2249,0.225,0.2252,0.2272,0.2262,0.2266,0.23,0.2302,0.2314,0.2314,0.23,0.2325,0.2326,0.2351,0.231,0.2381,0.2384,0.2387,0.2421,0.2428,0.2433,0,0,0,0,0,0.2244,0.2247,0.2248,0.2249,0.2254,0.2274,0.2279,0.2295,0.2302,0.2322,0.2327,0.2315,0.2346,0.2326,0.2328,0.2354,0.2379,0.2383,0.2387,0.2418,0.2426,0.2433,0,0,0,0,0,0,0.2248,0.225,0.225,0.2251,0.227,0.2277,0.2296,0.2313,0.2335,0.2332,0.2331,0.2331,0.237,0.2359,0.2338,0.2389,0.2363,0.2368,0.2387,0.2395,0.2401,0.2425,0.2311,0,0,0,0,0,0.2253,0.2265,0.2266,0.2274,0.2276,0.2294,0.2311,0.2318,0.233,0.2341,0.2355,0.2365,0.2384,0.2386,0.2402,0.242,0.2437,0.2442,0.2448,0.2453,0.2476,0.2519,0.2532,0.2401,0.2401,0.2401,0,0,0.2254,0.2262,0.2266,0.2279,0.2287,0.2306,0.2303,0.2324,0.2351,0.2337,0.2382,0.2395,0.2399,0.2425,0.244,0.2417,0.2499,0.2458,0.2462,0.2482,0.2525,0.2537,0.2549,0.2404,0.2403,0.2403,0,0,0.2263,0.2266,0.2276,0.2294,0.2314,0.2329,0.2342,0.2361,0.2379,0.242,0.242,0.2448,0.2479,0.2479,0.2484,0.2536,0.2542,0.2548,0.2583,0.2625,0.2636,0.2646,0.268,0.2693,0.2536,0.2536,0.2536,0,0.2271,0.2269,0.2287,0.2302,0.2314,0.2343,0.2352,0.2385,0.2419,0.2438,0.2442,0.2512,0.2506,0.2541,0.2558,0.255,0.258,0.2548,0.2633,0.2643,0.2652,0.2685,0.2699,0.2539,0.2538,0.2538,0.2538,0,0.2272,0.2287,0.2293,0.2323,0.2348,0.2359,0.2391,0.2439,0.2473,0.2498,0.256,0.2567,0.2606,0.261,0.26,0.2664,0.2666,0.2644,0.261,0.2668,0.2698,0.2712,0.2542,0.2541,0.254,0.254,0,0,0.2253,0.2285,0.2294,0.2313,0.2349,0.2375,0.2427,0.2476,0.2528,0.2576,0.2632,0.267,0.2687,0.2696,0.269,0.2724,0.2802,0.2719,0.272,0.2748,0.2908,0.2813,0.2818,0.2802,0.2805,0.2807,0.2901,0,0.2248,0.2272,0.2292,0.2341,0.2348,0.2399,0.2446,0.2504,0.2565,0.2636,0.2662,0.2723,0.2713,0.2742,0.2773,0.2805,0.2842,0.278,0.2854,0.2856,0.276,0.2832,0.2595,0.2651,0.2914,0.2916,0.2917,0,0.2238,0.226,0.2278,0.234,0.2348,0.2392,0.2486,0.254,0.2636,0.2677,0.2747,0.2785,0.2852,0.2833,0.2928,0.2896,0.2917,0.2935,0.2938,0.2851,0.2787,0.2638,0.2665,0.294,0.2938,0.2936,0.2935,0,0.2211,0.226,0.2277,0.2294,0.2363,0.2401,0.2458,0.2551,0.26,0.2726,0.278,0.286,0.291,0.2969,0.3012,0.2989,0.3112,0.3068,0.3005,0.2998,0.2811,0.2783,0.3146,0.3146,0.3145,0.3145,0.3145,0,0.219,0.2219,0.2276,0.2291,0.2338,0.2394,0.2472,0.2547,0.2638,0.269,0.2803,0.2861,0.2955,0.3027,0.3054,0.3077,0.3145,0.3041,0.3025,0.2815,0.2788,0.3045,0.3033,0.3149,0.3148,0.3147,0.3147,0,0.2156,0.219,0.2222,0.2291,0.2323,0.2366,0.2469,0.2519,0.2632,0.271,0.2755,0.2885,0.2983,0.3061,0.3153,0.3115,0.3154,0.314,0.2887,0.2839,0.3003,0.2991,0.3086,0.3084,0.3082,0.308,0.3078,0,0.2128,0.2145,0.2214,0.2238,0.2272,0.235,0.2385,0.2498,0.2548,0.2707,0.2724,0.2869,0.2918,0.3031,0.3027,0.3066,0.3132,0.2848,0.2747,0.3026,0.3002,0.2993,0.2984,0.2519,0.2513,0.2508,0.2504,0,0.2085,0.2118,0.2143,0.2182,0.2226,0.2271,0.2341,0.237,0.2492,0.255,0.2624,0.2689,0.2811,0.2738,0.2801,0.2789,0.2822,0.2749,0.3128,0.256,0.2496,0.247,0.248,0.2461,0.2466,0.2469,0.2471,0.2473,0.2049,0.2047,0.208,0.2112,0.2161,0.2166,0.2164,0.2219,0.2252,0.2287,0.2422,0.2423,0.2493,0.2452,0.2417,0.2408,0.2596,0.2475,0.2489,0.2508,0.2414,0.2349,0.2271,0.2274,0.2276,0.2279,0.2281,0,0.1977,0.198,0.2006,0.2007,0.2007,0.2081,0.2103,0.205,0.2017,0.2067,0.209,0.1937,0.1922,0.2019,0.1935,0.1958,0.1935,0.1885,0.1825,0.187,0.1909,0.1783,0.1473,0.147,0.1468,0.1466,0,0,0.1931,0.1908,0.1907,0.1853,0.1873,0.1804,0.1798,0.1734,0.173,0.1638,0.1613,0.1753,0.1896,0.1609,0.1619,0.1522,0.1672,0.1468,0.2119,0.2088,0.2123,0.226,0.2118,0,0,0,0,0]},{"header":{"parameterUnit":"m.s-1","parameterCategory":2,"la1":30.2991,"la2":30.254,"lo1":-89.0895,"lo2":-89.0444,"dy":0.0017,"dx":0.0017,"nx":28,"ny":28,"refTime":"2023-11-02T09:00:00:Z","depth":"2","parameterNumber":3,"parameterNumberName":"V-component_of_CURRENTS"},"data":[0,0,0,0,0,0,0,0,0,0,0,0,0,0,0,0,0,0,0,0,0,0,0,0,0,0,0,0,0,0,0,0,0,0,0,0,0,0,0,0,0,0,0,0,0,0,0,0,0,0,0,0,0,0,0,0,0,0,0.0202,0.0202,0,0.0125,0.0124,0.0122,0.0048,0.0047,0.0047,0.0047,0.0022,0.0022,0.0022,0,0,0,0,0,0,0,0,0,0,0,0,0,0.0201,0.0201,0.0202,0.0202,0.0201,0.0125,0.0124,0.0122,0.0048,0.0047,0.0047,0.0046,0.0022,0.0022,0.0022,0,0,0,0,0,0,0,0,0,0,0,0,0,0.0165,0.0201,0.0202,0.0159,0.0155,0.0126,0.0124,0.0122,0.0048,0.0047,0.0047,0.0046,0.0023,0.0022,0.0022,0.0033,0,0,0.0021,0.0021,0,0,0,0,0,0,0,0,0.0167,0.0165,0.0166,0.0162,0.0157,0.01,0.0115,0.0097,0.0048,0.0083,0.0047,0.0046,0.0058,0.0054,0.0032,0.0032,0.0031,0.0021,0.0021,0.002,0.002,0,0,0,0,0,0,0,0.017,0.0167,0.0166,0.0166,0.0161,0.0115,0.011,0.011,0.0071,0.008,0.0075,0.0076,0.0055,0.0033,0.0032,0.003,0.0021,0.0021,0.002,0.002,0.0013,0.0013,0,0,0,0,0,0,0.0196,0.017,0.0168,0.0164,0.0167,0.0117,0.011,0.0115,0.007,0.0064,0.0077,0.0073,0.0034,0.0032,0.0031,0.0047,0.002,0.002,0.002,0.0013,0.0013,0.0013,0,0,0,0,0,0,0.0197,0.0197,0.0171,0.0169,0.0164,0.0119,0.0124,0.0114,0.0087,0.0068,0.0062,0.0061,0.0033,0.0031,0.0031,0.0046,0.002,0.002,0.0013,0.0013,0.0013,0.0077,0,0,0,0,0,0,0.0197,0.0198,0.02,0.0172,0.0165,0.0157,0.0125,0.0113,0.0092,0.0085,0.0053,0.005,0.0032,0.0031,0.003,0.0045,0.0019,0.0013,0.0013,0.0013,0.0075,0.0079,0.0083,0,0,0,0,0,0.0197,0.0211,0.0201,0.02,0.0173,0.0158,0.015,0.0111,0.0092,0.0083,0.0063,0.0051,0.003,0.0031,0.003,0.0045,0.0013,0.0013,0.0013,0.0073,0.0078,0.0083,0,0,0,0,0,0,0.0216,0.0204,0.0192,0.0202,0.0184,0.0148,0.0144,0.0114,0.0088,0.0091,0.0058,0.0054,0.0054,0.004,0.0042,0.0039,0.0017,0.0017,0.0063,0.0068,0.0072,0.0087,0.0019,0,0,0,0,0,0.0224,0.0225,0.0209,0.0215,0.0216,0.0179,0.0165,0.0145,0.0124,0.0109,0.0077,0.0058,0.0054,0.0054,0.0038,0.0049,0.0027,0.0052,0.0056,0.006,0.007,0.004,0.0043,0.0013,0.0013,0.0013,0,0,0.0234,0.0227,0.0227,0.0218,0.0204,0.0209,0.0167,0.0164,0.0157,0.0117,0.0093,0.0072,0.0057,0.0059,0.0058,0.0052,0.0058,0.006,0.0064,0.0072,0.004,0.0043,0.0046,0.0013,0.0013,0.0013,0,0,0.0262,0.0254,0.0268,0.0263,0.0257,0.0233,0.0235,0.02,0.0175,0.0158,0.013,0.012,0.0092,0.0089,0.0087,0.0107,0.0076,0.0095,0.0138,0.0109,0.0112,0.0114,0.0098,0.0098,0.0103,0.0103,0.0103,0,0.0274,0.0294,0.0268,0.0289,0.0297,0.0249,0.0275,0.0243,0.0201,0.0193,0.0161,0.0129,0.011,0.0136,0.0134,0.0119,0.0096,0.0126,0.0116,0.0118,0.0118,0.0102,0.0101,0.0106,0.0106,0.0105,0.0105,0,0.0321,0.0335,0.0351,0.0357,0.0355,0.0372,0.0345,0.0316,0.0276,0.0245,0.0236,0.0205,0.0192,0.0179,0.0163,0.017,0.0149,0.0122,0.0109,0.0126,0.0107,0.0105,0.011,0.0109,0.0108,0.0108,0,0,0.035,0.0377,0.0381,0.0403,0.04,0.0406,0.0398,0.0382,0.0378,0.0326,0.0332,0.0304,0.028,0.0276,0.0255,0.0228,0.021,0.0179,0.0176,0.0174,0.0151,0.0137,0.0133,0.0174,0.0174,0.0174,0.0139,0,0.0394,0.0448,0.0447,0.049,0.0521,0.0491,0.0498,0.0477,0.0424,0.0407,0.0382,0.0371,0.0322,0.0321,0.0293,0.0229,0.0206,0.0223,0.0126,0.0124,0.0117,0.0131,0.0142,0.0111,0.0137,0.0136,0.0136,0,0.0444,0.0473,0.0534,0.0575,0.059,0.0602,0.0599,0.06,0.0566,0.053,0.0508,0.0468,0.0451,0.0392,0.0309,0.0318,0.0244,0.0184,0.0181,0.0145,0.0106,0.0095,0.0106,0.0132,0.0133,0.0133,0.0133,0,0.0483,0.0533,0.0582,0.0599,0.0635,0.0651,0.0663,0.0638,0.0658,0.0603,0.06,0.0556,0.0552,0.0448,0.0327,0.0309,0.0222,0.0183,0.0108,0.0106,0.0088,0.0085,0.0119,0.0119,0.0119,0.0119,0.0119,0,0.0535,0.0573,0.0603,0.0636,0.0696,0.0712,0.076,0.0734,0.0756,0.0798,0.0684,0.0701,0.0557,0.0489,0.0362,0.0241,0.0251,0.0123,0.0097,0.011,0.011,0.0101,0.01,0.0118,0.0118,0.0118,0.0119,0,0.0574,0.0593,0.0655,0.0705,0.072,0.0766,0.084,0.0876,0.0861,0.0909,0.0905,0.0827,0.0719,0.0571,0.0412,0.0302,0.0169,0.0121,0.0155,0.0133,0.0063,0.0065,0.0034,0.0033,0.0033,0.0032,0.0032,0,0.0602,0.0636,0.0703,0.0737,0.0759,0.0827,0.0884,0.0919,0.0968,0.099,0.1035,0.0946,0.0894,0.0657,0.0431,0.0218,0.0184,0.0087,0.005,0.0078,0.0055,0.0058,0.0061,0.0053,0.0053,0.0053,0.0053,0,0.0653,0.0673,0.0726,0.0794,0.0851,0.0931,0.1015,0.1081,0.114,0.1173,0.1209,0.1171,0.0946,0.0722,0.0425,0.0278,0.0117,0.0076,0.0097,0.0073,0.0093,0.0071,0.0074,0.0051,0.0051,0.0051,0.0051,0.0051,0.0691,0.0733,0.0794,0.0856,0.0925,0.1023,0.1101,0.1195,0.1302,0.1356,0.134,0.1258,0.1031,0.0625,0.038,0.0106,0.0123,0.0015,0.0016,0.0018,0.0027,0.0044,-0.0004,-0.0004,-0.0004,-0.0005,-0.0005,0,0.0737,0.0779,0.0846,0.0936,0.1013,0.1043,0.1183,0.1263,0.1382,0.1404,0.1419,0.1169,0.0927,0.0646,0.0243,0.0023,0.0002,-0.0055,-0.0034,-0.003,-0.0026,-0.002,-0.0064,-0.0065,-0.0066,-0.0067,0,0,0.0766,0.083,0.0861,0.0985,0.1049,0.1172,0.1251,0.1352,0.1401,0.1408,0.1346,0.1285,0.0974,0.0673,0.0381,0.0148,0.0105,0.01,0.0174,0.0239,0.0244,0.0042,0.0061,0,0,0,0,0]}],[{"header":{"parameterUnit":"m.s-1","parameterCategory":2,"la1":30.2991,"la2":30.254,"lo1":-89.0895,"lo2":-89.0444,"dy":0.0017,"dx":0.0017,"nx":28,"ny":28,"refTime":"2023-11-02T09:00:00:Z","depth":"4","parameterNumber":2,"parameterNumberName":"U-component_of_CURRENTS"},"data":[0,0,0,0,0,0,0,0,0,0,0,0,0,0,0,0,0,0,0,0,0,0,0,0,0,0,0,0,0,0,0,0,0,0,0,0,0,0,0,0,0,0,0,0,0,0,0,0,0,0,0,0,0,0,0,0,0,0,0.1126,0.1127,0,0.1186,0.1187,0.1188,0.1241,0.1241,0.1242,0.1242,0.1316,0.1317,0.1318,0,0,0,0,0,0,0,0,0,0,0,0,0,0.111,0.1109,0.1126,0.1127,0.1128,0.1186,0.1187,0.1188,0.1241,0.1241,0.1242,0.1243,0.1315,0.1317,0.1318,0,0,0,0,0,0,0,0,0,0,0,0,0,0.1138,0.1109,0.1126,0.1161,0.1164,0.1186,0.1187,0.1188,0.124,0.1241,0.1242,0.1243,0.1315,0.1317,0.1319,0.1314,0,0,0.1325,0.1326,0,0,0,0,0,0,0,0,0.1136,0.1138,0.1155,0.1158,0.1163,0.1207,0.1208,0.1231,0.124,0.1212,0.1242,0.1243,0.128,0.1285,0.1294,0.1317,0.1321,0.1325,0.1327,0.1327,0.1328,0,0,0,0,0,0,0,0.1134,0.1137,0.115,0.1156,0.116,0.1192,0.1196,0.1213,0.124,0.1214,0.1218,0.1224,0.1282,0.1292,0.1296,0.1322,0.1325,0.1327,0.1328,0.1329,0.1425,0.1426,0,0,0,0,0,0,0.1122,0.1134,0.1148,0.1152,0.1151,0.1191,0.1196,0.1192,0.124,0.1248,0.1224,0.1227,0.1288,0.1294,0.1299,0.1367,0.1327,0.1329,0.1331,0.1423,0.1425,0.1426,0,0,0,0,0,0,0.1122,0.1123,0.1146,0.1145,0.115,0.119,0.1185,0.1193,0.1234,0.1247,0.1255,0.126,0.1289,0.1296,0.1344,0.1367,0.133,0.1332,0.1422,0.1424,0.1425,0.1457,0,0,0,0,0,0,0.1121,0.1122,0.113,0.1144,0.115,0.1175,0.1184,0.1193,0.1234,0.1239,0.128,0.1286,0.129,0.1341,0.1346,0.137,0.1334,0.142,0.1423,0.1425,0.1455,0.146,0.1465,0,0,0,0,0,0.112,0.1119,0.1129,0.1132,0.1154,0.1176,0.1183,0.1214,0.1235,0.1255,0.1289,0.1287,0.1359,0.1344,0.1349,0.1374,0.1419,0.1422,0.1425,0.1452,0.1459,0.1464,0,0,0,0,0,0,0.1116,0.1125,0.1136,0.1139,0.1165,0.1185,0.1209,0.1231,0.1273,0.1286,0.1305,0.1313,0.1367,0.1366,0.1348,0.1409,0.1388,0.1392,0.1407,0.1414,0.1419,0.1422,0.1336,0,0,0,0,0,0.1117,0.1126,0.1139,0.115,0.1161,0.1192,0.1212,0.1231,0.1262,0.1283,0.1312,0.1344,0.1377,0.1393,0.142,0.1449,0.1461,0.1469,0.1474,0.1478,0.1485,0.1527,0.1536,0.1436,0.1436,0.1435,0,0,0.1119,0.1129,0.1134,0.1153,0.1176,0.1193,0.1207,0.1239,0.127,0.1282,0.1343,0.1369,0.1392,0.1432,0.1454,0.1437,0.1513,0.1482,0.1485,0.149,0.1531,0.1541,0.1549,0.1437,0.1437,0.1437,0,0,0.1125,0.1138,0.1146,0.1164,0.1197,0.1214,0.123,0.1263,0.1298,0.1352,0.1371,0.1413,0.1463,0.1478,0.1493,0.1541,0.1546,0.1551,0.1571,0.1611,0.162,0.1627,0.1655,0.1664,0.1544,0.1544,0.1544,0,0.1137,0.1138,0.1156,0.1169,0.1187,0.1227,0.1241,0.128,0.1331,0.1363,0.138,0.1468,0.1485,0.1531,0.1548,0.1553,0.1574,0.1544,0.1618,0.1625,0.1633,0.1659,0.1669,0.1546,0.1546,0.1545,0.1545,0,0.1135,0.1151,0.1161,0.1189,0.1211,0.1234,0.1273,0.132,0.1372,0.1407,0.1485,0.1516,0.1568,0.1576,0.1581,0.1636,0.1635,0.1626,0.16,0.1645,0.1669,0.168,0.1548,0.1548,0.1547,0.1547,0,0,0.113,0.1154,0.1164,0.1177,0.1222,0.1237,0.1298,0.1355,0.141,0.147,0.1536,0.1593,0.162,0.1639,0.1648,0.1673,0.1741,0.1673,0.1675,0.1696,0.1831,0.1713,0.1713,0.175,0.1752,0.1753,0.1827,0,0.1135,0.1153,0.1167,0.1201,0.1211,0.1261,0.1311,0.1371,0.1447,0.1522,0.1571,0.164,0.1641,0.1675,0.1705,0.174,0.177,0.1721,0.1788,0.179,0.1677,0.1722,0.176,0.1835,0.1837,0.1839,0.184,0,0.1125,0.1143,0.1166,0.1204,0.1215,0.125,0.1342,0.139,0.1498,0.1556,0.1634,0.1686,0.1749,0.1741,0.1827,0.18,0.1826,0.184,0.1843,0.1729,0.1691,0.1782,0.1858,0.1857,0.1855,0.1854,0.1853,0,0.1103,0.1139,0.1161,0.1174,0.1226,0.1267,0.1311,0.1413,0.1466,0.159,0.1652,0.1734,0.1795,0.1842,0.1893,0.1874,0.1976,0.195,0.1866,0.1858,0.1927,0.1918,0.2012,0.2012,0.2012,0.2012,0.2011,0,0.1083,0.1104,0.1162,0.1172,0.1215,0.1259,0.1332,0.1397,0.1499,0.1555,0.167,0.1729,0.1829,0.1901,0.1922,0.1928,0.2009,0.1879,0.1872,0.1938,0.193,0.1934,0.1924,0.2014,0.2014,0.2013,0.2013,0,0.1045,0.1083,0.1108,0.1174,0.1202,0.1236,0.1325,0.1377,0.1488,0.1571,0.1613,0.1752,0.184,0.1923,0.2003,0.1959,0.1975,0.1957,0.2033,0.2027,0.1821,0.1812,0.1862,0.1858,0.1855,0.1853,0.1851,0,0.1019,0.1032,0.1102,0.1127,0.1164,0.1226,0.1268,0.1363,0.1408,0.1563,0.1583,0.1729,0.1807,0.1835,0.192,0.1961,0.1939,0.1935,0.1863,0.182,0.1808,0.1804,0.1799,0.1846,0.1845,0.1845,0.1844,0,0.0972,0.1013,0.1038,0.1087,0.1135,0.1162,0.1225,0.1243,0.1347,0.1469,0.1526,0.1593,0.169,0.1756,0.1813,0.1832,0.1926,0.1904,0.1909,0.1841,0.1801,0.1792,0.179,0.1834,0.1835,0.1836,0.1837,0,0.0949,0.0952,0.0996,0.1029,0.1077,0.1072,0.1115,0.1156,0.1202,0.1362,0.1376,0.1531,0.1656,0.169,0.1735,0.1755,0.1724,0.1659,0.1676,0.1688,0.1599,0.1522,0.1469,0,0,0,0,0,0.0914,0.0906,0.093,0.0941,0.0983,0.1007,0.1069,0.1114,0.1219,0.1219,0.1288,0.1368,0.1455,0.1536,0.1525,0.1663,0.1731,0.1642,0.1664,0.1777,0.1789,0.17,0,0,0,0,0,0,0.0887,0.0908,0.09,0.0862,0.0861,0.088,0.0916,0.0989,0.0985,0.1115,0.1171,0.1283,0.139,0.1452,0.15,0.1525,0.1508,0.1738,0.1734,0.177,0.1781,0.179,0.1704,0,0,0,0,0]},{"header":{"parameterUnit":"m.s-1","parameterCategory":2,"la1":30.2991,"la2":30.254,"lo1":-89.0895,"lo2":-89.0444,"dy":0.0017,"dx":0.0017,"nx":28,"ny":28,"refTime":"2023-11-02T09:00:00:Z","depth":"4","parameterNumber":3,"parameterNumberName":"V-component_of_CURRENTS"},"data":[0,0,0,0,0,0,0,0,0,0,0,0,0,0,0,0,0,0,0,0,0,0,0,0,0,0,0,0,0,0,0,0,0,0,0,0,0,0,0,0,0,0,0,0,0,0,0,0,0,0,0,0,0,0,0,0,0,0,0.0264,0.0264,0,0.0234,0.0234,0.0233,0.0197,0.0196,0.0196,0.0196,0.018,0.0179,0.0179,0,0,0,0,0,0,0,0,0,0,0,0,0,0.0257,0.0258,0.0264,0.0264,0.0264,0.0234,0.0234,0.0233,0.0197,0.0196,0.0196,0.0196,0.018,0.0179,0.0179,0,0,0,0,0,0,0,0,0,0,0,0,0,0.0245,0.0258,0.0265,0.0244,0.0242,0.0234,0.0233,0.0233,0.0197,0.0196,0.0196,0.0195,0.018,0.0179,0.0179,0.0189,0,0,0.0179,0.0179,0,0,0,0,0,0,0,0,0.0246,0.0245,0.0247,0.0246,0.0243,0.0221,0.0225,0.022,0.0197,0.0212,0.0196,0.0195,0.0196,0.0195,0.0187,0.0188,0.0188,0.0179,0.0179,0.0179,0.0179,0,0,0,0,0,0,0,0.0247,0.0246,0.025,0.0247,0.0245,0.0225,0.0223,0.0223,0.0206,0.021,0.0208,0.0209,0.0195,0.0187,0.0186,0.0187,0.0179,0.0179,0.0179,0.0179,0.0189,0.019,0,0,0,0,0,0,0.0257,0.0247,0.0251,0.025,0.0246,0.0226,0.0223,0.0227,0.0206,0.0202,0.0209,0.0207,0.0188,0.0187,0.0186,0.0206,0.0179,0.0179,0.0179,0.0189,0.0189,0.019,0,0,0,0,0,0,0.0257,0.0258,0.0252,0.0249,0.0247,0.0227,0.0231,0.0226,0.0222,0.0205,0.0201,0.021,0.0187,0.0186,0.0187,0.0205,0.0179,0.0178,0.0189,0.0189,0.019,0.024,0,0,0,0,0,0,0.0257,0.0258,0.0266,0.025,0.0248,0.0255,0.0231,0.0226,0.0224,0.0221,0.0204,0.0202,0.0187,0.0187,0.0187,0.0204,0.0178,0.0188,0.0189,0.0189,0.0238,0.0242,0.0246,0,0,0,0,0,0.0257,0.0271,0.0267,0.0267,0.0259,0.0256,0.0253,0.0235,0.0224,0.0228,0.0212,0.0203,0.0191,0.0188,0.0187,0.0204,0.0188,0.0189,0.0189,0.0236,0.0241,0.0246,0,0,0,0,0,0,0.0273,0.0269,0.0263,0.0275,0.027,0.0251,0.0255,0.0242,0.0232,0.0232,0.0209,0.0206,0.0212,0.0201,0.0197,0.0208,0.0188,0.0188,0.0223,0.0228,0.0232,0.0242,0.0178,0,0,0,0,0,0.0281,0.0291,0.0281,0.0293,0.0292,0.0275,0.0273,0.0264,0.0253,0.0247,0.0233,0.0221,0.0215,0.0216,0.0207,0.0218,0.0195,0.0227,0.0231,0.0235,0.0242,0.0218,0.022,0.0193,0.0193,0.0193,0,0,0.0291,0.0291,0.0296,0.0297,0.0291,0.0299,0.0272,0.0277,0.0284,0.025,0.0253,0.0236,0.022,0.0227,0.0229,0.0221,0.0229,0.0236,0.0239,0.0244,0.0219,0.0222,0.0224,0.0193,0.0193,0.0193,0,0,0.0315,0.0316,0.033,0.0331,0.0332,0.0323,0.0329,0.0315,0.0308,0.031,0.0286,0.0279,0.027,0.0261,0.0256,0.0279,0.025,0.0277,0.031,0.0287,0.0289,0.0291,0.026,0.0258,0.0281,0.0281,0.0281,0,0.0325,0.0344,0.0334,0.0349,0.0357,0.0338,0.0357,0.035,0.0337,0.0336,0.0319,0.0301,0.0287,0.0296,0.03,0.029,0.0267,0.0295,0.0293,0.0294,0.0295,0.0263,0.026,0.0284,0.0284,0.0283,0.0283,0,0.0357,0.0375,0.0386,0.0399,0.0406,0.0422,0.0415,0.0416,0.0404,0.0391,0.0391,0.0365,0.0354,0.0348,0.0332,0.0337,0.0314,0.0299,0.0282,0.0301,0.0265,0.0262,0.0287,0.0287,0.0286,0.0285,0,0,0.0373,0.0402,0.0407,0.0425,0.0437,0.0446,0.0463,0.0469,0.0478,0.0458,0.0464,0.0447,0.0426,0.0419,0.0397,0.0377,0.0358,0.0345,0.0342,0.0318,0.0299,0.0267,0.026,0.0341,0.0341,0.0341,0.027,0,0.0401,0.0443,0.045,0.0492,0.0513,0.0511,0.053,0.0533,0.0522,0.052,0.0493,0.0489,0.0456,0.0453,0.043,0.0377,0.0353,0.0379,0.0282,0.0279,0.0252,0.0257,0.034,0.0267,0.0266,0.0266,0.0265,0,0.0429,0.0456,0.0504,0.0544,0.0554,0.0578,0.0604,0.0619,0.0612,0.0602,0.0588,0.0556,0.0534,0.0499,0.0421,0.0437,0.0376,0.0328,0.0324,0.0277,0.0242,0.0245,0.0259,0.0259,0.026,0.026,0.0261,0,0.0446,0.0492,0.0536,0.0551,0.0592,0.0616,0.0637,0.0645,0.0666,0.0655,0.0657,0.0615,0.06,0.0522,0.0423,0.0421,0.0324,0.0307,0.022,0.0216,0.0244,0.0243,0.025,0.025,0.025,0.025,0.0251,0,0.0472,0.0506,0.0551,0.0577,0.0631,0.065,0.0703,0.0708,0.073,0.0757,0.0706,0.0704,0.0604,0.0533,0.0438,0.0318,0.0334,0.0226,0.0198,0.0265,0.0267,0.024,0.024,0.0248,0.0248,0.0249,0.0249,0,0.0483,0.0513,0.0567,0.0622,0.0644,0.0684,0.0753,0.0786,0.0797,0.0829,0.083,0.0773,0.0677,0.0561,0.0429,0.0341,0.0226,0.0178,0.0256,0.0233,0.0129,0.0132,0.0076,0.0074,0.0073,0.0072,0.0071,0,0.0494,0.0524,0.0599,0.0635,0.0666,0.073,0.0778,0.0818,0.0852,0.0866,0.0879,0.0803,0.0746,0.0539,0.0411,0.022,0.0191,0.0124,0.0129,0.0134,0.0112,0.0118,0.0123,0.0068,0.0068,0.0068,0.0067,0,0.0511,0.054,0.0586,0.0661,0.072,0.0789,0.0855,0.0884,0.0929,0.094,0.0912,0.0807,0.0695,0.0534,0.0384,0.0248,0.0164,0.0109,0.0111,0.0115,0.0124,0.0105,0.0112,0.0062,0.0063,0.0064,0.0064,0,0.0524,0.0553,0.0615,0.068,0.0756,0.0823,0.086,0.0902,0.0939,0.0951,0.0939,0.0822,0.0762,0.0547,0.0411,0.0271,0.0232,0.0179,0.0177,0.018,0.0227,0.0255,0.0212,0,0,0,0,0,0.0532,0.0564,0.0626,0.0699,0.0776,0.0822,0.0902,0.0933,0.0973,0.0958,0.0952,0.0847,0.0643,0.0556,0.041,0.0372,0.02,0.0194,0.0136,0.0036,0.0041,0.0075,0,0,0,0,0,0,0.0537,0.0591,0.0621,0.0706,0.0756,0.0843,0.0896,0.0925,0.0916,0.0931,0.0827,0.0791,0.0595,0.0725,0.0401,0.036,0.0298,0.0107,0.0103,0.0033,0.0038,0.0042,0.0079,0,0,0,0,0]}]]